owner,sensor,date,latitude,longitude,air_temperature,qcFlag 
TABS,ioos:station:wmo:42046:1,2004-02-23T15:09:00Z,27.8903,-94.0367,21.4,11144222 
TABS,ioos:station:wmo:42046:1,2004-02-23T15:39:00Z,27.8903,-94.0367,21.5,11144222 
TABS,ioos:station:wmo:42046:1,2004-02-23T16:09:00Z,27.8903,-94.0367,21.4,11144222 
TABS,ioos:station:wmo:42046:1,2004-02-23T16:39:00Z,27.8903,-94.0367,21.5,11144222 
TABS,ioos:station:wmo:42046:1,2004-02-23T17:09:00Z,27.8903,-94.0367,21.7,11144222 
TABS,ioos:station:wmo:42046:1,2004-02-23T17:39:00Z,27.8903,-94.0367,21.7,11144222 
TABS,ioos:station:wmo:42046:1,2004-02-23T18:09:00Z,27.8903,-94.0367,21.9,11144222 
TABS,ioos:station:wmo:42046:1,2004-02-23T18:39:00Z,27.8903,-94.0367,21.7,11144222 
TABS,ioos:station:wmo:42046:1,2004-02-23T19:09:00Z,27.8903,-94.0367,21.6,11144222 
TABS,ioos:station:wmo:42046:1,2004-02-23T19:39:00Z,27.8903,-94.0367,21.4,11144222 
TABS,ioos:station:wmo:42046:1,2004-02-23T20:09:00Z,27.8903,-94.0367,21.6,11144222 
TABS,ioos:station:wmo:42046:1,2004-02-23T20:39:00Z,27.8903,-94.0367,21.6,11144222 
TABS,ioos:station:wmo:42046:1,2004-02-23T21:09:00Z,27.8903,-94.0367,21.7,11144222 
TABS,ioos:station:wmo:42046:1,2004-02-23T21:39:00Z,27.8903,-94.0367,21.6,11144222 
TABS,ioos:station:wmo:42046:1,2004-02-23T22:09:00Z,27.8903,-94.0367,21.5,11144222 
TABS,ioos:station:wmo:42046:1,2004-02-23T22:39:00Z,27.8903,-94.0367,21.5,11144222 
TABS,ioos:station:wmo:42046:1,2004-02-23T23:09:00Z,27.8903,-94.0367,21.2,11144222 
TABS,ioos:station:wmo:42046:1,2004-02-23T23:39:00Z,27.8903,-94.0367,21.0,11144222 
TABS,ioos:station:wmo:42046:1,2004-02-24T00:09:00Z,27.8903,-94.0367,20.9,11144222 
TABS,ioos:station:wmo:42046:1,2004-02-24T00:39:00Z,27.8903,-94.0367,20.9,11144222 
TABS,ioos:station:wmo:42046:1,2004-02-24T01:09:00Z,27.8903,-94.0367,20.9,11144222 
TABS,ioos:station:wmo:42046:1,2004-02-24T01:39:00Z,27.8903,-94.0367,20.8,11144222 
TABS,ioos:station:wmo:42046:1,2004-02-24T02:09:00Z,27.8903,-94.0367,20.7,11144222 
TABS,ioos:station:wmo:42046:1,2004-02-24T02:39:00Z,27.8903,-94.0367,20.6,11144222 
TABS,ioos:station:wmo:42046:1,2004-02-24T03:09:00Z,27.8903,-94.0367,20.5,11144222 
TABS,ioos:station:wmo:42046:1,2004-02-24T03:39:00Z,27.8903,-94.0367,20.4,11144222 
TABS,ioos:station:wmo:42046:1,2004-02-24T04:09:00Z,27.8903,-94.0367,20.3,11144222 
TABS,ioos:station:wmo:42046:1,2004-02-24T04:39:00Z,27.8903,-94.0367,20.2,11144222 
TABS,ioos:station:wmo:42046:1,2004-02-24T05:09:00Z,27.8903,-94.0367,20.1,11144222 
TABS,ioos:station:wmo:42046:1,2004-02-24T05:39:00Z,27.8903,-94.0367,20.0,11144222 
TABS,ioos:station:wmo:42046:1,2004-02-24T06:09:00Z,27.8903,-94.0367,19.1,11144222 
TABS,ioos:station:wmo:42046:1,2004-02-24T06:39:00Z,27.8903,-94.0367,18.8,11144222 
TABS,ioos:station:wmo:42046:1,2004-02-24T07:09:00Z,27.8903,-94.0367,18.9,11144222 
TABS,ioos:station:wmo:42046:1,2004-02-24T07:39:00Z,27.8903,-94.0367,19.0,11144222 
TABS,ioos:station:wmo:42046:1,2004-02-24T08:09:00Z,27.8903,-94.0367,19.2,11144222 
TABS,ioos:station:wmo:42046:1,2004-02-24T08:39:00Z,27.8903,-94.0367,19.2,11144222 
TABS,ioos:station:wmo:42046:1,2004-02-24T09:09:00Z,27.8903,-94.0367,19.5,11144222 
TABS,ioos:station:wmo:42046:1,2004-02-24T09:39:00Z,27.8903,-94.0367,19.5,11144222 
TABS,ioos:station:wmo:42046:1,2004-02-24T10:09:00Z,27.8903,-94.0367,19.4,11144222 
TABS,ioos:station:wmo:42046:1,2004-02-24T10:39:00Z,27.8903,-94.0367,19.3,11144222 
TABS,ioos:station:wmo:42046:1,2004-02-24T11:09:00Z,27.8903,-94.0367,19.3,11144222 
TABS,ioos:station:wmo:42046:1,2004-02-24T11:39:00Z,27.8903,-94.0367,19.3,11144222 
TABS,ioos:station:wmo:42046:1,2004-02-24T12:09:00Z,27.8903,-94.0367,19.2,11144222 
TABS,ioos:station:wmo:42046:1,2004-02-24T12:39:00Z,27.8903,-94.0367,19.1,11144222 
TABS,ioos:station:wmo:42046:1,2004-02-24T13:09:00Z,27.8903,-94.0367,19.0,11144222 
TABS,ioos:station:wmo:42046:1,2004-02-24T13:39:00Z,27.8903,-94.0367,18.9,11144222 
TABS,ioos:station:wmo:42046:1,2004-02-24T14:09:00Z,27.8903,-94.0367,18.8,11144222 
TABS,ioos:station:wmo:42046:1,2004-02-24T14:39:00Z,27.8903,-94.0367,18.8,11144222 
TABS,ioos:station:wmo:42046:1,2004-02-24T15:09:00Z,27.8903,-94.0367,18.7,11144222 
TABS,ioos:station:wmo:42046:1,2004-02-24T15:39:00Z,27.8903,-94.0367,18.6,11144222 
TABS,ioos:station:wmo:42046:1,2004-02-24T16:09:00Z,27.8903,-94.0367,18.3,11144222 
TABS,ioos:station:wmo:42046:1,2004-02-24T16:39:00Z,27.8903,-94.0367,18.0,11144222 
TABS,ioos:station:wmo:42046:1,2004-02-24T17:09:00Z,27.8903,-94.0367,18.2,11144222 
TABS,ioos:station:wmo:42046:1,2004-02-24T17:39:00Z,27.8903,-94.0367,18.2,11144222 
TABS,ioos:station:wmo:42046:1,2004-02-24T18:09:00Z,27.8903,-94.0367,18.1,11144222 
TABS,ioos:station:wmo:42046:1,2004-02-24T18:39:00Z,27.8903,-94.0367,18.1,11144222 
TABS,ioos:station:wmo:42046:1,2004-02-24T19:09:00Z,27.8903,-94.0367,18.0,11144222 
TABS,ioos:station:wmo:42046:1,2004-02-24T19:39:00Z,27.8903,-94.0367,18.0,11144222 
TABS,ioos:station:wmo:42046:1,2004-02-24T20:09:00Z,27.8903,-94.0367,18.0,11144222 
TABS,ioos:station:wmo:42046:1,2004-02-24T20:39:00Z,27.8903,-94.0367,17.9,11144222 
TABS,ioos:station:wmo:42046:1,2004-02-24T21:09:00Z,27.8903,-94.0367,17.8,11144222 
TABS,ioos:station:wmo:42046:1,2004-02-24T21:39:00Z,27.8903,-94.0367,17.6,11144222 
TABS,ioos:station:wmo:42046:1,2004-02-24T22:09:00Z,27.8903,-94.0367,17.9,11144222 
TABS,ioos:station:wmo:42046:1,2004-02-24T22:39:00Z,27.8903,-94.0367,17.9,11144222 
TABS,ioos:station:wmo:42046:1,2004-02-24T23:09:00Z,27.8903,-94.0367,18.1,11144222 
TABS,ioos:station:wmo:42046:1,2004-02-24T23:39:00Z,27.8903,-94.0367,18.0,11144222 
TABS,ioos:station:wmo:42046:1,2004-02-25T00:09:00Z,27.8903,-94.0367,17.3,11144222 
TABS,ioos:station:wmo:42046:1,2004-02-25T00:39:00Z,27.8903,-94.0367,17.2,11144222 
TABS,ioos:station:wmo:42046:1,2004-02-25T01:09:00Z,27.8903,-94.0367,17.5,11144222 
TABS,ioos:station:wmo:42046:1,2004-02-25T01:39:00Z,27.8903,-94.0367,17.6,11144222 
TABS,ioos:station:wmo:42046:1,2004-02-25T02:09:00Z,27.8903,-94.0367,17.4,11144222 
TABS,ioos:station:wmo:42046:1,2004-02-25T02:39:00Z,27.8903,-94.0367,17.5,11144222 
TABS,ioos:station:wmo:42046:1,2004-02-25T03:09:00Z,27.8903,-94.0367,17.4,11144222 
TABS,ioos:station:wmo:42046:1,2004-02-25T03:39:00Z,27.8903,-94.0367,17.4,11144222 
TABS,ioos:station:wmo:42046:1,2004-02-25T04:09:00Z,27.8903,-94.0367,17.5,11144222 
TABS,ioos:station:wmo:42046:1,2004-02-25T04:39:00Z,27.8903,-94.0367,17.6,11144222 
TABS,ioos:station:wmo:42046:1,2004-02-25T05:09:00Z,27.8903,-94.0367,17.8,11144222 
TABS,ioos:station:wmo:42046:1,2004-02-25T05:39:00Z,27.8903,-94.0367,17.7,11144222 
TABS,ioos:station:wmo:42046:1,2004-02-25T06:09:00Z,27.8903,-94.0367,17.7,11144222 
TABS,ioos:station:wmo:42046:1,2004-02-25T06:39:00Z,27.8903,-94.0367,17.7,11144222 
TABS,ioos:station:wmo:42046:1,2004-02-25T07:09:00Z,27.8903,-94.0367,17.7,11144222 
TABS,ioos:station:wmo:42046:1,2004-02-25T07:39:00Z,27.8903,-94.0367,17.7,11144222 
TABS,ioos:station:wmo:42046:1,2004-02-25T08:09:00Z,27.8903,-94.0367,17.5,11144222 
TABS,ioos:station:wmo:42046:1,2004-02-25T08:39:00Z,27.8903,-94.0367,17.4,11144222 
TABS,ioos:station:wmo:42046:1,2004-02-25T09:09:00Z,27.8903,-94.0367,17.3,11144222 
TABS,ioos:station:wmo:42046:1,2004-02-25T09:39:00Z,27.8903,-94.0367,17.3,11144222 
TABS,ioos:station:wmo:42046:1,2004-02-25T10:09:00Z,27.8903,-94.0367,17.4,11144222 
TABS,ioos:station:wmo:42046:1,2004-02-25T10:39:00Z,27.8903,-94.0367,17.4,11144222 
TABS,ioos:station:wmo:42046:1,2004-02-25T11:09:00Z,27.8903,-94.0367,17.8,11144222 
TABS,ioos:station:wmo:42046:1,2004-02-25T11:39:00Z,27.8903,-94.0367,17.9,11144222 
TABS,ioos:station:wmo:42046:1,2004-02-25T12:09:00Z,27.8903,-94.0367,18.0,11144222 
TABS,ioos:station:wmo:42046:1,2004-02-25T12:39:00Z,27.8903,-94.0367,18.2,11144222 
TABS,ioos:station:wmo:42046:1,2004-02-25T13:09:00Z,27.8903,-94.0367,18.3,11144222 
TABS,ioos:station:wmo:42046:1,2004-02-25T13:39:00Z,27.8903,-94.0367,18.0,11144222 
TABS,ioos:station:wmo:42046:1,2004-02-25T14:09:00Z,27.8903,-94.0367,17.6,11144222 
TABS,ioos:station:wmo:42046:1,2004-02-25T14:39:00Z,27.8903,-94.0367,17.3,11144222 
TABS,ioos:station:wmo:42046:1,2004-02-25T15:09:00Z,27.8903,-94.0367,17.0,11144222 
TABS,ioos:station:wmo:42046:1,2004-02-25T15:39:00Z,27.8903,-94.0367,16.6,11144222 
TABS,ioos:station:wmo:42046:1,2004-02-25T16:09:00Z,27.8903,-94.0367,16.1,11144222 
TABS,ioos:station:wmo:42046:1,2004-02-25T16:39:00Z,27.8903,-94.0367,16.0,11144222 
TABS,ioos:station:wmo:42046:1,2004-02-25T17:09:00Z,27.8903,-94.0367,15.8,11144222 
TABS,ioos:station:wmo:42046:1,2004-02-25T17:39:00Z,27.8903,-94.0367,15.6,11144222 
TABS,ioos:station:wmo:42046:1,2004-02-25T18:09:00Z,27.8903,-94.0367,15.1,11144222 
TABS,ioos:station:wmo:42046:1,2004-02-25T18:39:00Z,27.8903,-94.0367,14.9,11144222 
TABS,ioos:station:wmo:42046:1,2004-02-25T19:09:00Z,27.8903,-94.0367,14.8,11144222 
TABS,ioos:station:wmo:42046:1,2004-02-25T19:39:00Z,27.8903,-94.0367,14.7,11144222 
TABS,ioos:station:wmo:42046:1,2004-02-25T20:09:00Z,27.8903,-94.0367,14.4,11144222 
TABS,ioos:station:wmo:42046:1,2004-02-25T20:39:00Z,27.8903,-94.0367,14.4,11144222 
TABS,ioos:station:wmo:42046:1,2004-02-25T21:09:00Z,27.8903,-94.0367,14.3,11144222 
TABS,ioos:station:wmo:42046:1,2004-02-25T21:39:00Z,27.8903,-94.0367,13.9,11144222 
TABS,ioos:station:wmo:42046:1,2004-02-25T22:09:00Z,27.8903,-94.0367,13.8,11144222 
TABS,ioos:station:wmo:42046:1,2004-02-25T22:39:00Z,27.8903,-94.0367,14.0,11144222 
TABS,ioos:station:wmo:42046:1,2004-02-25T23:09:00Z,27.8903,-94.0367,14.1,11144222 
TABS,ioos:station:wmo:42046:1,2004-02-25T23:39:00Z,27.8903,-94.0367,13.6,11144222 
TABS,ioos:station:wmo:42046:1,2004-02-26T00:09:00Z,27.8903,-94.0367,13.1,11144222 
TABS,ioos:station:wmo:42046:1,2004-02-26T00:39:00Z,27.8903,-94.0367,13.3,11144222 
TABS,ioos:station:wmo:42046:1,2004-02-26T01:09:00Z,27.8903,-94.0367,12.7,11144222 
TABS,ioos:station:wmo:42046:1,2004-02-26T01:39:00Z,27.8903,-94.0367,12.6,11144222 
TABS,ioos:station:wmo:42046:1,2004-02-26T02:09:00Z,27.8903,-94.0367,12.5,11144222 
TABS,ioos:station:wmo:42046:1,2004-02-26T02:39:00Z,27.8903,-94.0367,12.4,11144222 
TABS,ioos:station:wmo:42046:1,2004-02-26T03:09:00Z,27.8903,-94.0367,12.1,11144222 
TABS,ioos:station:wmo:42046:1,2004-02-26T03:39:00Z,27.8903,-94.0367,12.0,11144222 
TABS,ioos:station:wmo:42046:1,2004-02-26T04:09:00Z,27.8903,-94.0367,11.7,11144222 
TABS,ioos:station:wmo:42046:1,2004-02-26T04:39:00Z,27.8903,-94.0367,11.6,11144222 
TABS,ioos:station:wmo:42046:1,2004-02-26T05:09:00Z,27.8903,-94.0367,11.4,11144222 
TABS,ioos:station:wmo:42046:1,2004-02-26T05:39:00Z,27.8903,-94.0367,11.6,11144222 
TABS,ioos:station:wmo:42046:1,2004-02-26T06:09:00Z,27.8903,-94.0367,11.7,11144222 
TABS,ioos:station:wmo:42046:1,2004-02-26T06:39:00Z,27.8903,-94.0367,11.6,11144222 
TABS,ioos:station:wmo:42046:1,2004-02-26T07:09:00Z,27.8903,-94.0367,12.0,11144222 
TABS,ioos:station:wmo:42046:1,2004-02-26T07:39:00Z,27.8903,-94.0367,11.9,11144222 
TABS,ioos:station:wmo:42046:1,2004-02-26T08:09:00Z,27.8903,-94.0367,11.6,11144222 
TABS,ioos:station:wmo:42046:1,2004-02-26T08:39:00Z,27.8903,-94.0367,11.9,11144222 
TABS,ioos:station:wmo:42046:1,2004-02-26T09:09:00Z,27.8903,-94.0367,12.1,11144222 
TABS,ioos:station:wmo:42046:1,2004-02-26T09:39:00Z,27.8903,-94.0367,12.2,11144222 
TABS,ioos:station:wmo:42046:1,2004-02-26T10:09:00Z,27.8903,-94.0367,11.9,11144222 
TABS,ioos:station:wmo:42046:1,2004-02-26T10:39:00Z,27.8903,-94.0367,12.0,11144222 
TABS,ioos:station:wmo:42046:1,2004-02-26T11:09:00Z,27.8903,-94.0367,11.9,11144222 
TABS,ioos:station:wmo:42046:1,2004-02-26T11:39:00Z,27.8903,-94.0367,12.2,11144222 
TABS,ioos:station:wmo:42046:1,2004-02-26T12:09:00Z,27.8903,-94.0367,12.2,11144222 
TABS,ioos:station:wmo:42046:1,2004-02-26T12:39:00Z,27.8903,-94.0367,12.1,11144222 
TABS,ioos:station:wmo:42046:1,2004-02-26T13:09:00Z,27.8903,-94.0367,12.1,11144222 
TABS,ioos:station:wmo:42046:1,2004-02-26T13:39:00Z,27.8903,-94.0367,12.1,11144222 
TABS,ioos:station:wmo:42046:1,2004-02-26T14:09:00Z,27.8903,-94.0367,12.0,11144222 
TABS,ioos:station:wmo:42046:1,2004-02-26T14:39:00Z,27.8903,-94.0367,11.9,11144222 
TABS,ioos:station:wmo:42046:1,2004-02-26T15:09:00Z,27.8903,-94.0367,12.1,11144222 
TABS,ioos:station:wmo:42046:1,2004-02-26T15:39:00Z,27.8903,-94.0367,11.8,11144222 
TABS,ioos:station:wmo:42046:1,2004-02-26T16:09:00Z,27.8903,-94.0367,11.8,11144222 
TABS,ioos:station:wmo:42046:1,2004-02-26T16:39:00Z,27.8903,-94.0367,11.9,11144222 
TABS,ioos:station:wmo:42046:1,2004-02-26T17:09:00Z,27.8903,-94.0367,11.8,11144222 
TABS,ioos:station:wmo:42046:1,2004-02-26T17:39:00Z,27.8903,-94.0367,12.0,11144222 
TABS,ioos:station:wmo:42046:1,2004-02-26T18:09:00Z,27.8903,-94.0367,12.1,11144222 
TABS,ioos:station:wmo:42046:1,2004-02-26T18:39:00Z,27.8903,-94.0367,12.1,11144222 
TABS,ioos:station:wmo:42046:1,2004-02-26T19:09:00Z,27.8903,-94.0367,12.1,11144222 
TABS,ioos:station:wmo:42046:1,2004-02-26T19:39:00Z,27.8903,-94.0367,11.9,11144222 
TABS,ioos:station:wmo:42046:1,2004-02-26T20:09:00Z,27.8903,-94.0367,11.9,11144222 
TABS,ioos:station:wmo:42046:1,2004-02-26T20:39:00Z,27.8903,-94.0367,12.1,11144222 
TABS,ioos:station:wmo:42046:1,2004-02-26T21:09:00Z,27.8903,-94.0367,12.3,11144222 
TABS,ioos:station:wmo:42046:1,2004-02-26T21:39:00Z,27.8903,-94.0367,12.5,11144222 
TABS,ioos:station:wmo:42046:1,2004-02-26T22:09:00Z,27.8903,-94.0367,12.5,11144222 
TABS,ioos:station:wmo:42046:1,2004-02-26T22:39:00Z,27.8903,-94.0367,12.9,11144222 
TABS,ioos:station:wmo:42046:1,2004-02-26T23:09:00Z,27.8903,-94.0367,13.0,11144222 
TABS,ioos:station:wmo:42046:1,2004-02-26T23:39:00Z,27.8903,-94.0367,13.2,11144222 
TABS,ioos:station:wmo:42046:1,2004-02-27T00:09:00Z,27.8903,-94.0367,13.4,11144222 
TABS,ioos:station:wmo:42046:1,2004-02-27T00:39:00Z,27.8903,-94.0367,13.6,11144222 
TABS,ioos:station:wmo:42046:1,2004-02-27T01:09:00Z,27.8903,-94.0367,13.8,11144222 
TABS,ioos:station:wmo:42046:1,2004-02-27T01:39:00Z,27.8903,-94.0367,13.9,11144222 
TABS,ioos:station:wmo:42046:1,2004-02-27T02:09:00Z,27.8903,-94.0367,14.0,11144222 
TABS,ioos:station:wmo:42046:1,2004-02-27T02:39:00Z,27.8903,-94.0367,14.3,11144222 
TABS,ioos:station:wmo:42046:1,2004-02-27T03:09:00Z,27.8903,-94.0367,14.4,11144222 
TABS,ioos:station:wmo:42046:1,2004-02-27T03:39:00Z,27.8903,-94.0367,14.6,11144222 
TABS,ioos:station:wmo:42046:1,2004-02-27T04:09:00Z,27.8903,-94.0367,14.7,11144222 
TABS,ioos:station:wmo:42046:1,2004-02-27T04:39:00Z,27.8903,-94.0367,14.6,11144222 
TABS,ioos:station:wmo:42046:1,2004-02-27T05:09:00Z,27.8903,-94.0367,15.0,11144222 
TABS,ioos:station:wmo:42046:1,2004-02-27T05:39:00Z,27.8903,-94.0367,15.0,11144222 
TABS,ioos:station:wmo:42046:1,2004-02-27T06:09:00Z,27.8903,-94.0367,15.0,11144222 
TABS,ioos:station:wmo:42046:1,2004-02-27T06:39:00Z,27.8903,-94.0367,15.0,11144222 
TABS,ioos:station:wmo:42046:1,2004-02-27T07:09:00Z,27.8903,-94.0367,14.9,11144222 
TABS,ioos:station:wmo:42046:1,2004-02-27T07:39:00Z,27.8903,-94.0367,14.9,11144222 
TABS,ioos:station:wmo:42046:1,2004-02-27T08:09:00Z,27.8903,-94.0367,14.8,11144222 
TABS,ioos:station:wmo:42046:1,2004-02-27T08:39:00Z,27.8903,-94.0367,14.7,11144222 
TABS,ioos:station:wmo:42046:1,2004-02-27T09:09:00Z,27.8903,-94.0367,14.8,11144222 
TABS,ioos:station:wmo:42046:1,2004-02-27T09:39:00Z,27.8903,-94.0367,14.4,11144222 
TABS,ioos:station:wmo:42046:1,2004-02-27T10:09:00Z,27.8903,-94.0367,14.2,11144222 
TABS,ioos:station:wmo:42046:1,2004-02-27T10:39:00Z,27.8903,-94.0367,14.0,11144222 
TABS,ioos:station:wmo:42046:1,2004-02-27T11:09:00Z,27.8903,-94.0367,14.0,11144222 
TABS,ioos:station:wmo:42046:1,2004-02-27T11:39:00Z,27.8903,-94.0367,13.8,11144222 
TABS,ioos:station:wmo:42046:1,2004-02-27T12:09:00Z,27.8903,-94.0367,13.9,11144222 
TABS,ioos:station:wmo:42046:1,2004-02-27T12:39:00Z,27.8903,-94.0367,13.8,11144222 
TABS,ioos:station:wmo:42046:1,2004-02-27T13:09:00Z,27.8903,-94.0367,13.9,11144222 
TABS,ioos:station:wmo:42046:1,2004-02-27T13:39:00Z,27.8903,-94.0367,13.9,11144222 
TABS,ioos:station:wmo:42046:1,2004-02-27T14:09:00Z,27.8903,-94.0367,13.9,11144222 
TABS,ioos:station:wmo:42046:1,2004-02-27T14:39:00Z,27.8903,-94.0367,14.1,11144222 
TABS,ioos:station:wmo:42046:1,2004-02-27T15:09:00Z,27.8903,-94.0367,14.2,11144222 
TABS,ioos:station:wmo:42046:1,2004-02-27T15:39:00Z,27.8903,-94.0367,14.3,11144222 
TABS,ioos:station:wmo:42046:1,2004-02-27T16:09:00Z,27.8903,-94.0367,14.4,11144222 
TABS,ioos:station:wmo:42046:1,2004-02-27T16:39:00Z,27.8903,-94.0367,14.4,11144222 
TABS,ioos:station:wmo:42046:1,2004-02-27T17:09:00Z,27.8903,-94.0367,14.4,11144222 
TABS,ioos:station:wmo:42046:1,2004-02-27T17:39:00Z,27.8903,-94.0367,14.4,11144222 
TABS,ioos:station:wmo:42046:1,2004-02-27T18:09:00Z,27.8903,-94.0367,14.5,11144222 
TABS,ioos:station:wmo:42046:1,2004-02-27T18:39:00Z,27.8903,-94.0367,14.5,11144222 
TABS,ioos:station:wmo:42046:1,2004-02-27T19:09:00Z,27.8903,-94.0367,14.5,11144222 
TABS,ioos:station:wmo:42046:1,2004-02-27T19:39:00Z,27.8903,-94.0367,14.4,11144222 
TABS,ioos:station:wmo:42046:1,2004-02-27T20:09:00Z,27.8903,-94.0367,14.4,11144222 
TABS,ioos:station:wmo:42046:1,2004-02-27T20:39:00Z,27.8903,-94.0367,14.4,11144222 
TABS,ioos:station:wmo:42046:1,2004-02-27T21:09:00Z,27.8903,-94.0367,14.4,11144222 
TABS,ioos:station:wmo:42046:1,2004-02-27T21:39:00Z,27.8903,-94.0367,14.2,11144222 
TABS,ioos:station:wmo:42046:1,2004-02-27T22:09:00Z,27.8903,-94.0367,14.7,11144222 
TABS,ioos:station:wmo:42046:1,2004-02-27T22:39:00Z,27.8903,-94.0367,14.9,11144222 
TABS,ioos:station:wmo:42046:1,2004-02-27T23:09:00Z,27.8903,-94.0367,15.0,11144222 
TABS,ioos:station:wmo:42046:1,2004-02-27T23:39:00Z,27.8903,-94.0367,14.7,11144222 
TABS,ioos:station:wmo:42046:1,2004-02-28T00:09:00Z,27.8903,-94.0367,14.5,11144222 
TABS,ioos:station:wmo:42046:1,2004-02-28T00:39:00Z,27.8903,-94.0367,14.5,11144222 
TABS,ioos:station:wmo:42046:1,2004-02-28T01:09:00Z,27.8903,-94.0367,14.6,11144222 
TABS,ioos:station:wmo:42046:1,2004-02-28T01:39:00Z,27.8903,-94.0367,14.7,11144222 
TABS,ioos:station:wmo:42046:1,2004-02-28T02:09:00Z,27.8903,-94.0367,14.6,11144222 
TABS,ioos:station:wmo:42046:1,2004-02-28T02:39:00Z,27.8903,-94.0367,14.6,11144222 
TABS,ioos:station:wmo:42046:1,2004-02-28T03:09:00Z,27.8903,-94.0367,14.6,11144222 
TABS,ioos:station:wmo:42046:1,2004-02-28T03:39:00Z,27.8903,-94.0367,14.7,11144222 
TABS,ioos:station:wmo:42046:1,2004-02-28T04:09:00Z,27.8903,-94.0367,14.8,11144222 
TABS,ioos:station:wmo:42046:1,2004-02-28T04:39:00Z,27.8903,-94.0367,14.9,11144222 
TABS,ioos:station:wmo:42046:1,2004-02-28T05:09:00Z,27.8903,-94.0367,15.1,11144222 
TABS,ioos:station:wmo:42046:1,2004-02-28T05:39:00Z,27.8903,-94.0367,15.4,11144222 
TABS,ioos:station:wmo:42046:1,2004-02-28T06:09:00Z,27.8903,-94.0367,15.6,11144222 
TABS,ioos:station:wmo:42046:1,2004-02-28T06:39:00Z,27.8903,-94.0367,15.7,11144222 
TABS,ioos:station:wmo:42046:1,2004-02-28T07:09:00Z,27.8903,-94.0367,15.8,11144222 
TABS,ioos:station:wmo:42046:1,2004-02-28T07:39:00Z,27.8903,-94.0367,16.0,11144222 
TABS,ioos:station:wmo:42046:1,2004-02-28T08:09:00Z,27.8903,-94.0367,16.3,11144222 
TABS,ioos:station:wmo:42046:1,2004-02-28T08:39:00Z,27.8903,-94.0367,16.3,11144222 
TABS,ioos:station:wmo:42046:1,2004-02-28T09:09:00Z,27.8903,-94.0367,16.6,11144222 
TABS,ioos:station:wmo:42046:1,2004-02-28T09:39:00Z,27.8903,-94.0367,16.8,11144222 
TABS,ioos:station:wmo:42046:1,2004-02-28T10:09:00Z,27.8903,-94.0367,17.1,11144222 
TABS,ioos:station:wmo:42046:1,2004-02-28T10:39:00Z,27.8903,-94.0367,17.2,11144222 
TABS,ioos:station:wmo:42046:1,2004-02-28T11:09:00Z,27.8903,-94.0367,17.2,11144222 
TABS,ioos:station:wmo:42046:1,2004-02-28T11:39:00Z,27.8903,-94.0367,17.4,11144222 
TABS,ioos:station:wmo:42046:1,2004-02-28T12:09:00Z,27.8903,-94.0367,17.4,11144222 
TABS,ioos:station:wmo:42046:1,2004-02-28T12:39:00Z,27.8903,-94.0367,17.6,11144222 
TABS,ioos:station:wmo:42046:1,2004-02-28T13:09:00Z,27.8903,-94.0367,17.7,11144222 
TABS,ioos:station:wmo:42046:1,2004-02-28T13:39:00Z,27.8903,-94.0367,17.9,11144222 
TABS,ioos:station:wmo:42046:1,2004-02-28T14:09:00Z,27.8903,-94.0367,17.7,11144222 
TABS,ioos:station:wmo:42046:1,2004-02-28T14:39:00Z,27.8903,-94.0367,17.9,11144222 
TABS,ioos:station:wmo:42046:1,2004-02-28T15:09:00Z,27.8903,-94.0367,18.3,11144222 
TABS,ioos:station:wmo:42046:1,2004-02-28T15:39:00Z,27.8903,-94.0367,18.3,11144222 
TABS,ioos:station:wmo:42046:1,2004-02-28T16:09:00Z,27.8903,-94.0367,18.4,11144222 
TABS,ioos:station:wmo:42046:1,2004-02-28T16:39:00Z,27.8903,-94.0367,18.7,11144222 
TABS,ioos:station:wmo:42046:1,2004-02-28T17:09:00Z,27.8903,-94.0367,18.9,11144222 
TABS,ioos:station:wmo:42046:1,2004-02-28T17:39:00Z,27.8903,-94.0367,19.1,11144222 
TABS,ioos:station:wmo:42046:1,2004-02-28T18:09:00Z,27.8903,-94.0367,19.0,11144222 
TABS,ioos:station:wmo:42046:1,2004-02-28T18:39:00Z,27.8903,-94.0367,19.0,11144222 
TABS,ioos:station:wmo:42046:1,2004-02-28T19:09:00Z,27.8903,-94.0367,19.2,11144222 
TABS,ioos:station:wmo:42046:1,2004-02-28T19:39:00Z,27.8903,-94.0367,19.3,11144222 
TABS,ioos:station:wmo:42046:1,2004-02-28T20:09:00Z,27.8903,-94.0367,19.4,11144222 
TABS,ioos:station:wmo:42046:1,2004-02-28T20:39:00Z,27.8903,-94.0367,19.3,11144222 
TABS,ioos:station:wmo:42046:1,2004-02-28T21:09:00Z,27.8903,-94.0367,19.5,11144222 
TABS,ioos:station:wmo:42046:1,2004-02-28T21:39:00Z,27.8903,-94.0367,19.5,11144222 
TABS,ioos:station:wmo:42046:1,2004-02-28T22:09:00Z,27.8903,-94.0367,19.5,11144222 
TABS,ioos:station:wmo:42046:1,2004-02-28T22:39:00Z,27.8903,-94.0367,19.4,11144222 
TABS,ioos:station:wmo:42046:1,2004-02-28T23:09:00Z,27.8903,-94.0367,19.5,11144222 
TABS,ioos:station:wmo:42046:1,2004-02-28T23:39:00Z,27.8903,-94.0367,19.5,11144222 
TABS,ioos:station:wmo:42046:1,2004-02-29T00:09:00Z,27.8903,-94.0367,19.5,11144222 
TABS,ioos:station:wmo:42046:1,2004-02-29T00:39:00Z,27.8903,-94.0367,19.5,11144222 
TABS,ioos:station:wmo:42046:1,2004-02-29T01:09:00Z,27.8903,-94.0367,19.4,11144222 
TABS,ioos:station:wmo:42046:1,2004-02-29T01:39:00Z,27.8903,-94.0367,19.6,11144222 
TABS,ioos:station:wmo:42046:1,2004-02-29T02:09:00Z,27.8903,-94.0367,19.6,11144222 
TABS,ioos:station:wmo:42046:1,2004-02-29T02:39:00Z,27.8903,-94.0367,19.6,11144222 
TABS,ioos:station:wmo:42046:1,2004-02-29T03:09:00Z,27.8903,-94.0367,19.6,11144222 
TABS,ioos:station:wmo:42046:1,2004-02-29T03:39:00Z,27.8903,-94.0367,19.4,11144222 
TABS,ioos:station:wmo:42046:1,2004-02-29T04:09:00Z,27.8903,-94.0367,19.7,11144222 
TABS,ioos:station:wmo:42046:1,2004-02-29T04:39:00Z,27.8903,-94.0367,19.8,11144222 
TABS,ioos:station:wmo:42046:1,2004-02-29T05:09:00Z,27.8903,-94.0367,19.9,11144222 
TABS,ioos:station:wmo:42046:1,2004-02-29T05:39:00Z,27.8903,-94.0367,19.8,11144222 
TABS,ioos:station:wmo:42046:1,2004-02-29T06:09:00Z,27.8903,-94.0367,19.9,11144222 
TABS,ioos:station:wmo:42046:1,2004-02-29T06:39:00Z,27.8903,-94.0367,19.9,11144222 
TABS,ioos:station:wmo:42046:1,2004-02-29T07:09:00Z,27.8903,-94.0367,20.0,11144222 
TABS,ioos:station:wmo:42046:1,2004-02-29T07:39:00Z,27.8903,-94.0367,20.0,11144222 
TABS,ioos:station:wmo:42046:1,2004-02-29T08:09:00Z,27.8903,-94.0367,20.0,11144222 
TABS,ioos:station:wmo:42046:1,2004-02-29T08:39:00Z,27.8903,-94.0367,19.3,11144222 
TABS,ioos:station:wmo:42046:1,2004-02-29T09:09:00Z,27.8903,-94.0367,20.0,11144222 
TABS,ioos:station:wmo:42046:1,2004-02-29T09:39:00Z,27.8903,-94.0367,20.0,11144222 
TABS,ioos:station:wmo:42046:1,2004-02-29T10:09:00Z,27.8903,-94.0367,20.1,11144222 
TABS,ioos:station:wmo:42046:1,2004-02-29T10:39:00Z,27.8903,-94.0367,20.1,11144222 
TABS,ioos:station:wmo:42046:1,2004-02-29T11:09:00Z,27.8903,-94.0367,20.1,11144222 
TABS,ioos:station:wmo:42046:1,2004-02-29T11:39:00Z,27.8903,-94.0367,20.1,11144222 
TABS,ioos:station:wmo:42046:1,2004-02-29T12:09:00Z,27.8903,-94.0367,20.3,11144222 
TABS,ioos:station:wmo:42046:1,2004-02-29T12:39:00Z,27.8903,-94.0367,20.4,11144222 
TABS,ioos:station:wmo:42046:1,2004-02-29T13:09:00Z,27.8903,-94.0367,20.6,11144222 
TABS,ioos:station:wmo:42046:1,2004-02-29T13:39:00Z,27.8903,-94.0367,20.7,11144222 
TABS,ioos:station:wmo:42046:1,2004-02-29T14:09:00Z,27.8903,-94.0367,20.7,11144222 
TABS,ioos:station:wmo:42046:1,2004-02-29T14:39:00Z,27.8903,-94.0367,20.6,11144222 